Weather History for Billings, MT

Change the Weather History Date:

Sunday, June 30, 2013

  Actual Average Record
Temperature  
Mean Temperature 75 °F 69 °F  
Max Temperature 89 °F 83 °F 102 °F (1990)
Min Temperature 61 °F 56 °F 43 °F (1951)
Degree Days  
Heating Degree Days 0 1  
Month to date heating degree days 73 94  
Since 1 June heating degree days 73 96  
Since 1 July heating degree days 6420 6782  
Cooling Degree Days 10 5  
Month to date cooling degree days 96 85  
Year to date cooling degree days 123 102  
Since 1 June cooling degree days 96 85  
Growing Degree Days 26 (Base 50)    
Moisture  
Dew Point 58 °F    
Average Humidity 59    
Maximum Humidity 84    
Minimum Humidity 34    
Precipitation  
Precipitation 0.00 in 0.06 in 0.45 in (1992)
Month to date precipitation 0.88 2.12  
Year to date precipitation 7.32 7.98  
Snow  
Snow 0.00 in 0.00 in 0.00 in (2002)
Month to date snowfall 0.0 0.0  
Since 1 June snowfall 0.0 0.0  
Since 1 July snowfall 40.4 55.0  
Snow Depth 0.00 in    
Sea Level Pressure  
Sea Level Pressure 30.05 in    
Wind  
Wind Speed 5 mph (North)    
Max Wind Speed 14 mph    
Max Gust Speed 17 mph    
Visibility 10 miles    
Events      
T = Trace of Precipitation, MM = Missing Value Source: NWS Daily Summary

Daily Weather History Graph

Daily Weather History Graph

Search for Another Location

Airport:

Trip Planner

Search our weather history database for the weather conditions in past years. The results will help you decide how hot, cold, wet, or windy it might be!

Date:

Astronomy

Jun. 30, 2013 Rise Set
Actual Time 5:27 AM MDT 9:07 PM MDT
Civil Twilight 4:49 AM MDT 9:45 PM MDT
Nautical Twilight 3:58 AM MDT 10:36 PM MDT
Astronomical Twilight 2:49 AM MDT 11:45 PM MDT
Moon 12:43 AM MDT (6/30) 2:12 PM MDT (6/30)
Length of Visible Light 16h 56m
Length of Day
15h 40m
Last Quarter, 45% of the Moon is Illuminated
Jun 30
Last Quarter
Jul 8
New
Jul 15
First Quarter
Jul 22
Full
Jul 29
Last Quarter

Hourly Weather History & Observations

Time (MDT) Temp. Heat Index Dew Point Humidity Pressure Visibility Wind Dir Wind Speed Gust Speed Precip Events Conditions
12:10 AM 68.0 °F - 57.0 °F 68% 30.14 in 10.0 mi North 13.8 mph 25.3 mph N/A   Partly Cloudy
12:17 AM 66.0 °F - 59.0 °F 78% 30.14 in 10.0 mi NW 12.7 mph 21.9 mph N/A   Partly Cloudy
12:53 AM 66.0 °F - 57.9 °F 75% 30.06 in 10.0 mi North 9.2 mph - N/A   Clear
1:53 AM 64.0 °F - 59.0 °F 84% 30.05 in 10.0 mi NNW 8.1 mph - N/A   Clear
2:53 AM 63.0 °F - 57.0 °F 81% 30.04 in 10.0 mi NW 3.5 mph - N/A   Clear
3:53 AM 62.1 °F - 57.0 °F 84% 30.04 in 10.0 mi Calm Calm - N/A   Clear
4:53 AM 62.1 °F - 57.9 °F 86% 30.04 in 10.0 mi SW 3.5 mph - N/A   Partly Cloudy
5:53 AM 62.1 °F - 57.9 °F 86% 30.04 in 10.0 mi South 4.6 mph - N/A   Partly Cloudy
6:53 AM 63.0 °F - 57.9 °F 84% 30.06 in 10.0 mi WSW 6.9 mph - N/A   Partly Cloudy
7:53 AM 64.9 °F - 59.0 °F 81% 30.07 in 10.0 mi SSW 8.1 mph - N/A   Partly Cloudy
8:53 AM 68.0 °F - 59.0 °F 73% 30.10 in 10.0 mi WSW 4.6 mph - N/A   Partly Cloudy
9:53 AM 71.1 °F - 60.1 °F 68% 30.09 in 10.0 mi SW 5.8 mph - N/A   Partly Cloudy
10:53 AM 75.0 °F - 60.1 °F 60% 30.07 in 10.0 mi SSW 5.8 mph - N/A   Partly Cloudy
11:53 AM 79.0 °F - 59.0 °F 50% 30.05 in 10.0 mi Calm Calm - N/A   Partly Cloudy
12:53 PM 82.0 °F 82.0 °F 57.9 °F 44% 30.05 in 10.0 mi East 4.6 mph - N/A   Partly Cloudy
1:53 PM 84.9 °F 83.9 °F 57.0 °F 38% 30.04 in 10.0 mi Calm Calm - N/A   Partly Cloudy
2:53 PM 86.0 °F 84.9 °F 57.0 °F 37% 30.03 in 10.0 mi Calm Calm - N/A   Scattered Clouds
3:53 PM 84.9 °F 84.8 °F 60.1 °F 43% 30.01 in 10.0 mi ENE 8.1 mph - N/A   Scattered Clouds
4:53 PM 87.1 °F 85.9 °F 57.0 °F 36% 30.01 in 10.0 mi Variable 3.5 mph - N/A   Scattered Clouds
5:53 PM 87.1 °F 85.7 °F 55.9 °F 35% 30.00 in 10.0 mi ENE 9.2 mph - N/A   Scattered Clouds
6:53 PM 86.0 °F 84.7 °F 55.9 °F 36% 30.01 in 10.0 mi NE 10.4 mph - N/A   Scattered Clouds
7:53 PM 84.9 °F 83.7 °F 55.9 °F 37% 30.01 in 10.0 mi ENE 13.8 mph - N/A   Partly Cloudy
8:53 PM 81.0 °F 81.0 °F 57.0 °F 44% 30.02 in 10.0 mi East 6.9 mph - N/A   Partly Cloudy
9:53 PM 77.0 °F - 57.0 °F 50% 30.05 in 10.0 mi NE 5.8 mph - N/A   Partly Cloudy
10:53 PM 73.9 °F - 55.9 °F 53% 30.06 in 10.0 mi NNE 5.8 mph - N/A   Partly Cloudy
11:53 PM 71.1 °F - 55.9 °F 59% 30.08 in 10.0 mi North 5.8 mph - N/A   Clear